Find Badr 6

NORAD ID: 33154 Int'l Des: 2008-034 Owner: ARAB Country: I-ARAB operational
HEOCIRCULAR

現在のビュー

3D地球を読み込み中...

About Badr 6

Badr 6 (NORAD 33154) is a satellite launched Jul 7, 2008 by ARAB of I-ARAB. It operates in HEO, CIRCULAR orbit with a mass of 3346.00 kg.

次回通過

Passes for default location (London). Set your location on the main map for personalized predictions.

高度履歴

Loading altitude history...

軌道要素

1 33154U 08034B 26194.83580565 -.00000172 00000-0 00000+0 0 9993
2 33154 2.9379 79.1872 0010019 1.6728 99.1874 0.98745018 65930
Epoch: Jul 13, 2026 • Age: 11 hours

現在のステータス

高度 36226.5 km
遠地点 / 近地点 N/A
速度 3.06 km/s
衛星直下点 -2.95°S, 55.17°W
打ち上げ日 Jul 7, 2008
運用期間 18 years
タイプ other

技術仕様

分類 Payload
質量 3346.00 kg
乾燥質量 1510.00 kg
総質量 3346.00 kg
長さ 2.90 m
直径 1.80 m
スパン 32.00 m
形状 Box + 2 Pan + Dish
製造者 ASTT
バスタイプ Eurostar 2000+
フェーズステータス In Orbit
所有者/国 ARAB/I-ARAB

Most Searched